Theta_e
346 344 343 341 341 339 336 331 331 331 329 328 329 331 332 333 334 336 337 352 349 350 353 355 355 355 356 355 354 354 354 354 353 351 349 349 349 349 350 349 349 348 348
347 345 341 340 339 338 336 331 332 330 329 331 331 332 335 339 338 338 339 342 349 349 351 354 356 356 357 357 355 354 353 353 353 351 350 349 348 348 349 349 349 348 347
344 346 343 341 341 338 335 332 330 334 332 333 333 335 337 341 341 343 344 342 343 349 350 352 354 356 357 357 357 356 353 352 352 351 350 349 348 348 348 349 349 348 347
346 344 343 342 340 339 335 334 331 333 336 333 330 333 341 342 342 342 343 343 344 344 348 351 352 354 355 357 357 357 356 352 351 350 349 349 349 348 347 348 348 348 347
347 345 345 342 340 338 336 338 333 333 333 330 331 332 336 340 341 346 344 344 342 344 342 346 350 350 352 354 356 357 356 354 352 351 350 349 349 348 348 347 348 348 347
344 347 347 342 339 339 336 335 334 334 333 332 332 332 336 338 341 341 343 343 343 344 342 342 344 346 349 352 354 355 357 356 353 352 351 349 348 348 347 347 347 347 348
345 344 348 343 341 338 337 334 331 331 330 333 331 329 332 338 337 342 341 341 340 340 342 345 342 340 342 348 349 351 355 357 356 353 349 348 348 348 348 347 347 347 347
348 345 345 345 342 341 336 336 335 332 332 331 330 327 323 326 335 339 340 340 339 338 341 343 346 343 343 342 342 347 351 355 357 355 351 347 347 348 348 348 347 347 346
348 348 346 344 343 341 338 336 336 333 330 333 332 327 323 319 328 336 338 338 337 336 340 340 340 342 340 339 342 345 347 348 352 354 351 348 348 348 347 347 347 346 346
348 347 345 344 342 342 339 337 337 335 332 329 330 333 334 330 325 324 334 336 338 339 338 337 338 339 341 340 345 346 343 342 346 347 348 350 350 350 348 346 346 346 346
348 347 347 344 342 341 341 339 336 337 334 330 329 330 332 330 330 325 322 328 330 333 337 338 336 332 331 334 335 337 339 337 337 339 340 344 347 348 347 347 348 346 347
344 346 346 346 344 343 340 340 338 336 337 334 334 332 332 330 325 324 321 321 324 326 331 332 330 328 328 331 334 336 336 334 332 332 332 335 338 342 344 347 349 350 348
340 341 344 343 346 345 344 344 340 339 338 337 336 337 335 333 328 325 323 320 319 320 322 326 327 328 332 333 333 338 338 331 330 329 329 330 332 335 338 342 346 347 347
340 341 342 343 343 345 346 344 343 343 340 342 339 338 337 335 330 328 324 319 314 317 321 321 329 329 328 331 336 339 337 331 329 327 327 328 329 331 333 336 339 341 342
338 339 333 334 338 342 343 334 325 324 338 342 341 340 337 335 333 327 325 323 318 313 315 322 325 330 331 336 336 337 336 334 333 330 328 327 327 328 329 331 333 335 334
328 322 324 325 328 328 328 330 327 324 322 333 340 337 333 332 330 329 327 326 325 320 316 324 326 329 331 334 336 337 336 333 332 329 328 327 327 326 327 328 331 330 329
318 319 322 324 325 323 326 321 322 324 322 322 334 334 332 332 332 330 330 328 328 328 324 325 327 328 327 330 333 334 335 334 337 329 328 326 324 324 325 328 328 327 327
318 320 323 325 325 324 324 320 321 322 320 320 332 333 334 335 331 331 330 329 329 329 327 324 323 324 326 326 328 329 331 337 336 331 326 324 323 323 324 324 322 323 320
317 317 323 323 324 324 323 322 323 321 321 324 330 333 334 334 332 331 329 328 328 329 327 324 324 324 324 324 325 327 329 330 336 331 323 321 318 318 320 319 318 318 316
317 315 317 322 322 323 321 319 320 319 321 325 333 336 332 332 329 328 329 328 326 325 322 320 316 317 319 320 324 322 323 325 326 332 327 324 321 319 318 317 318 318 316
319 322 322 319 317 317 320 319 319 321 325 327 332 333 331 329 325 324 323 321 318 318 316 312 309 307 307 309 312 320 321 323 324 327 326 325 324 323 320 317 319 318 315
314 321 319 321 316 318 314 309 316 317 323 329 326 321 318 317 314 312 313 312 313 312 312 311 309 306 305 307 314 318 319 318 315 326 325 327 327 325 326 321 316 313 312
307 316 319 319 319 317 309 306 309 322 328 321 318 315 316 317 315 314 310 309 309 308 310 308 305 308 310 314 319 317 317 319 318 322 326 324 330 328 330 328 315 310 310
304 311 315 317 317 317 309 307 309 325 320 319 317 315 318 317 317 319 319 316 314 314 312 310 309 311 313 317 319 322 321 321 322 323 326 321 326 325 324 322 312 309 308
303 308 315 316 315 315 308 305 316 320 318 317 319 318 317 316 306 307 316 315 316 316 317 312 311 308 305 303 308 320 321 321 316 317 323 322 323 323 322 320 314 309 307
303 306 311 313 313 314 309 303 315 318 316 317 316 316 311 314 301 303 313 314 313 314 317 315 313 308 303 311 304 318 325 323 316 314 324 322 322 323 320 322 316 312 310
Wind_Speed
7 7 8 8 8 6 7 6 7 8 7 8 7 8 8 8 8 3 3 13 13 14 14 14 14 13 13 13 13 12 13 13 14 14 14 13 13 13 15 15 14 13 13
9 10 9 10 9 9 9 9 9 8 8 7 9 8 7 6 6 6 4 6 11 12 12 14 14 14 14 13 13 13 13 12 13 13 13 14 14 14 15 15 15 15 14
10 9 9 11 11 10 12 9 10 8 8 9 11 8 7 8 6 7 5 5 7 13 13 13 14 13 14 14 14 13 14 14 14 15 15 14 14 16 16 17 16 16 15
10 11 9 9 9 10 12 12 10 11 11 9 5 6 6 9 8 9 6 5 5 6 11 14 13 13 13 14 15 14 14 14 14 14 14 15 15 17 17 17 17 16 16
15 12 9 10 6 8 9 9 11 10 10 6 7 5 5 6 7 8 8 8 8 6 5 12 16 14 13 14 15 16 15 12 12 14 15 16 16 17 17 17 17 16 16
13 12 10 10 9 7 8 5 8 6 7 9 8 7 8 6 7 7 10 7 6 7 7 7 6 8 15 15 14 13 13 12 12 14 16 17 18 18 18 17 17 17 17
14 15 10 9 8 12 9 6 3 6 5 5 4 3 5 7 6 7 5 5 6 6 6 7 4 4 4 13 8 9 11 13 12 14 15 17 17 17 18 17 17 16 17
13 13 15 12 14 10 14 10 11 7 7 5 6 1 3 4 3 5 5 5 8 4 5 7 6 6 4 3 5 11 13 14 14 14 15 15 16 18 18 18 18 18 18
14 18 18 16 14 12 11 14 12 16 11 8 13 6 2 5 2 2 6 4 4 4 4 5 1 4 5 4 6 7 12 13 14 16 15 15 16 17 15 17 19 19 18
15 15 17 17 16 14 17 13 12 14 13 12 2 9 1 4 4 1 2 3 5 5 5 2 3 5 4 4 5 7 9 15 10 15 17 14 14 14 15 14 17 18 19
17 17 18 17 15 13 16 18 18 16 14 11 12 5 3 2 2 3 3 4 2 4 2 3 3 4 4 4 4 5 11 9 13 9 12 11 12 11 11 15 15 17 18
13 17 18 18 19 16 19 18 18 18 16 16 11 11 11 9 5 5 2 3 4 3 3 4 4 5 5 4 4 8 12 9 10 10 10 10 11 12 15 15 13 16 17
11 15 16 17 16 17 19 18 16 19 21 17 16 11 11 10 5 5 5 3 3 2 2 4 4 4 4 5 6 9 8 14 9 11 11 11 12 12 13 12 10 10 10
12 16 14 16 20 22 19 19 15 16 18 17 19 12 9 7 5 5 6 6 2 4 3 6 4 4 3 5 7 11 4 11 13 13 10 10 10 9 9 8 9 8 7
12 15 10 8 12 18 23 6 4 7 22 16 15 16 12 7 7 5 5 5 6 4 4 4 3 4 3 4 6 5 5 8 13 13 8 9 7 8 8 7 6 6 5
7 6 6 5 6 7 8 10 7 10 16 22 16 14 9 6 6 5 4 4 4 6 4 4 5 4 4 4 5 5 6 11 9 10 9 6 8 8 8 6 6 6 7
4 7 8 8 7 6 7 7 6 5 9 17 22 6 8 6 5 5 5 3 5 4 6 3 4 3 3 5 5 5 5 4 4 9 3 5 5 6 7 6 7 7 5
6 8 6 8 10 11 10 10 7 1 5 21 11 3 7 6 6 6 4 7 5 4 4 7 3 3 5 6 6 4 3 3 3 3 5 5 5 5 5 5 6 5 6
7 7 10 9 11 12 12 11 9 10 11 10 15 13 9 9 9 7 6 7 5 4 5 4 4 4 5 2 3 3 1 3 3 3 3 4 3 2 3 2 4 5 6
5 7 7 10 7 8 12 12 13 15 20 18 18 12 11 10 8 8 8 6 5 4 3 2 2 3 2 2 1 0 3 1 2 3 5 4 4 5 4 4 5 6 7
6 6 10 10 10 11 12 15 16 10 12 17 10 9 7 9 10 8 5 6 7 4 4 3 1 1 3 3 2 0 1 2 3 3 1 2 2 3 3 4 4 6 9
11 7 5 5 11 12 21 19 24 21 14 17 9 7 8 12 12 13 10 11 9 5 4 4 3 1 4 4 2 2 1 1 3 2 3 2 4 3 3 4 7 9 9
10 11 7 12 10 26 20 12 12 11 16 13 14 12 8 6 8 7 7 7 7 8 7 6 4 4 2 7 2 1 1 2 3 5 2 2 4 4 5 4 9 9 7
8 10 8 9 10 3 15 25 19 14 11 13 13 12 10 8 8 9 8 5 4 5 6 5 6 6 5 7 3 3 3 2 2 4 3 3 2 2 2 3 10 9 8
10 8 13 13 3 7 16 25 21 13 11 10 10 10 9 8 10 12 8 6 4 1 2 6 7 8 9 8 4 2 3 2 3 3 2 3 3 3 3 3 3 9 10
8 7 10 11 13 10 23 17 21 10 11 9 6 8 12 9 11 12 8 6 4 3 2 1 1 3 6 7 9 7 3 6 3 1 2 0 1 4 3 3 3 4 5
Wind_Direction
204 185 180 182 187 187 196 198 198 209 217 225 230 221 214 219 227 210 189 199 197 205 206 209 214 219 226 224 227 229 228 223 222 227 229 229 232 228 223 217 219 218 226
200 200 179 186 195 191 194 197 199 208 210 211 226 228 233 230 232 230 193 209 210 213 219 217 224 223 225 228 230 224 222 217 231 233 235 235 231 229 233 231 224 222 219
210 215 198 192 192 193 190 207 200 203 219 209 213 211 223 224 223 226 208 198 207 221 223 228 231 229 228 227 230 231 224 216 215 224 225 231 235 234 230 233 228 227 223
192 210 222 214 199 200 196 190 213 197 197 204 215 225 219 224 215 225 214 208 191 210 225 227 231 233 232 230 233 231 231 219 219 224 231 228 231 235 231 234 235 230 227
199 200 208 216 201 210 225 205 203 207 197 194 195 228 228 207 215 220 224 210 211 199 208 214 219 222 230 228 230 230 230 223 220 227 230 235 233 236 237 233 236 233 230
210 211 213 206 200 222 216 219 193 203 199 203 201 216 234 229 209 202 213 216 212 208 208 214 218 221 219 228 230 240 242 234 228 233 231 231 232 231 232 231 233 232 234
206 214 213 206 206 215 217 218 206 180 217 184 135 276 265 231 225 207 181 200 215 209 213 224 212 219 221 233 218 237 247 242 240 241 240 235 236 234 234 230 229 229 231
206 206 214 211 210 212 214 201 201 206 216 190 208 100 243 318 299 235 205 199 218 219 234 220 205 187 189 188 213 232 246 249 249 250 249 239 236 232 231 229 227 224 230
214 210 215 214 212 212 216 216 206 204 206 203 206 160 147 217 188 272 238 210 222 212 223 224 186 219 199 236 224 234 245 253 257 263 264 245 237 240 237 228 226 225 225
233 227 224 219 215 212 211 213 218 210 202 206 199 216 143 145 176 263 311 232 217 226 210 185 221 258 255 269 271 260 261 260 283 275 271 261 251 241 239 235 231 227 223
248 234 223 226 218 218 220 216 210 209 206 202 207 165 153 151 128 135 202 251 326 248 182 184 197 242 263 265 267 290 278 254 251 274 284 288 271 271 252 245 239 232 225
256 244 233 220 225 224 223 218 210 206 206 211 198 203 199 191 178 149 157 219 199 263 211 223 226 241 257 270 277 271 258 259 272 279 286 275 278 261 253 250 242 244 228
254 254 242 232 231 221 222 221 209 212 208 206 196 189 196 201 160 145 138 187 181 258 266 247 242 241 244 241 229 239 246 269 297 286 279 276 266 258 260 256 243 240 229
266 255 251 242 236 237 233 226 218 210 212 207 198 192 184 182 162 158 154 143 143 238 237 231 228 224 233 261 240 218 238 269 271 275 278 280 265 262 261 255 247 236 214
264 261 286 291 278 259 253 190 217 328 281 223 196 190 187 172 177 157 149 138 145 194 248 249 229 218 215 230 222 216 231 267 270 273 275 267 276 252 238 227 222 212 172
276 260 249 251 263 241 242 260 258 255 287 292 233 176 170 174 146 152 173 158 158 167 229 191 229 208 228 243 235 229 234 240 273 283 258 249 255 244 231 207 205 175 156
238 231 231 227 208 185 118 113 126 173 7 274 268 160 150 163 151 160 159 154 176 164 216 275 237 212 259 250 238 229 245 280 283 296 252 243 256 258 244 183 166 148 143
251 267 240 227 205 188 190 172 202 164 17 309 228 256 175 174 178 172 165 188 181 169 168 237 252 252 224 234 234 232 246 269 277 272 229 230 223 229 211 164 122 125 131
232 262 271 238 218 196 180 167 160 163 123 263 245 218 194 184 192 186 187 173 173 210 190 185 256 251 245 262 299 262 243 279 260 309 232 232 188 226 213 186 154 148 158
235 228 244 268 247 211 185 175 153 167 158 225 230 203 198 194 185 187 185 159 149 168 123 166 246 291 287 308 100 67 326 6 292 242 204 177 173 207 212 205 202 187 184
261 260 220 232 238 216 213 196 167 207 223 239 200 186 188 174 158 155 143 132 121 142 139 118 92 340 311 332 87 230 237 283 295 239 208 173 155 215 199 215 216 197 201
295 247 276 201 262 249 215 228 174 199 219 224 164 146 156 141 142 140 147 146 152 164 146 144 171 243 273 257 204 205 162 15 326 252 154 215 169 219 213 201 189 194 192
300 291 219 233 232 239 256 196 229 195 192 159 152 150 155 150 136 151 163 152 172 179 169 159 169 212 247 245 167 307 199 173 238 276 170 224 188 192 211 178 168 172 177
280 291 271 230 235 179 252 256 208 198 142 154 152 143 130 140 150 130 118 135 190 197 189 177 182 241 240 263 205 201 238 230 285 276 193 201 213 141 91 80 146 152 143
297 290 278 266 226 282 316 260 171 147 143 141 152 138 135 135 144 133 127 135 144 193 133 173 183 197 241 266 246 289 286 266 272 246 261 167 184 107 109 105 118 132 141
251 268 279 247 225 194 262 249 132 139 148 144 143 133 139 140 148 146 131 146 154 218 125 67 234 240 222 254 213 216 208 244 194 255 286 136 347 124 125 121 128 126 117